FW9377 Weather Reports


Display with metric or nautical units.
time (UTC)temp
F
wind
direction
speed
MPH
gust
MPH
rain 1hr
in
rain 24hr
in
rain mn
in
humidity
%
barometer
mb
20260504203110 83 139 3.0 11.0 0.00 0.00 0.00 52 1012.9
20260504201600 83 161 3.0 8.0 0.00 0.00 0.00 53 1013.2
20260504200100 83 223 4.0 10.0 0.00 0.00 0.00 52 1013.4
20260504194610 83 167 3.0 10.0 0.00 0.00 0.00 51 1013.6
20260504193107 84 191 5.0 10.0 0.00 0.00 0.00 51 1013.7
20260504191600 82 209 5.0 11.0 0.00 0.00 0.00 51 1014.0
20260504190129 82 153 2.0 11.0 0.00 0.00 0.00 52 1014.2
20260504184600 82 232 3.0 9.0 0.00 0.00 0.00 51 1014.3
20260504183101 81 198 5.0 14.0 0.00 0.00 0.00 52 1014.4
20260504181559 82 208 2.0 10.0 0.00 0.00 0.00 52 1014.5
20260504180059 82 187 5.0 15.0 0.00 0.00 0.00 51 1014.9
20260504174608 80 180 5.0 12.0 0.00 0.00 0.00 52 1015.1
20260504173101 80 136 6.0 14.0 0.00 0.00 0.00 54 1015.2
20260504171601 80 190 3.0 13.0 0.00 0.00 0.00 50 1015.6
20260504160107 77 125 3.0 14.0 0.00 0.00 0.00 60 1016.5
20260504081607 63 0 0.0 0.0 0.00 0.00 0.00 70 1016.9
20260504060126 65 0 0.0 4.0 0.00 0.00 0.00 65 1018.5
20260504050116 66 0 1.0 5.0 0.00 0.00 0.00 61 1018.9
20260504044604 67 0 0.0 2.0 0.00 0.00 0.00 61 1019.0
20260504043110 67 0 0.0 1.0 0.00 0.00 0.00 59 1018.9
20260504041600 68 0 0.0 6.0 0.00 0.00 0.00 59 1019.0
20260504040106 68 181 0.0 4.0 0.00 0.00 0.00 58 1018.9
20260504034602 68 0 0.0 5.0 0.00 0.00 0.00 57 1019.0
20260504033100 69 0 1.0 5.0 0.00 0.00 0.00 56 1019.0
20260504031605 69 0 2.0 7.0 0.00 0.00 0.00 55 1018.9
20260504030057 70 169 1.0 4.0 0.00 0.00 0.00 54 1018.7
20260504024601 70 188 2.0 6.0 0.00 0.00 0.00 53 1018.6
20260504023059 71 170 0.0 6.0 0.00 0.00 0.00 52 1018.7
20260504021601 71 150 1.0 7.0 0.00 0.00 0.00 51 1018.6
20260504020058 72 165 0.0 8.0 0.00 0.00 0.00 49 1018.7
20260504014603 72 0 2.0 6.0 0.00 0.00 0.00 48 1018.7
20260504013113 73 0 1.0 8.0 0.00 0.00 0.00 47 1018.5
20260504011559 74 168 1.0 6.0 0.00 0.00 0.00 45 1018.4
20260504010115 74 154 2.0 6.0 0.00 0.00 0.00 44 1018.5
20260504004600 75 164 3.0 9.0 0.00 0.00 0.00 43 1018.4
20260504003057 76 155 1.0 9.0 0.00 0.00 0.00 41 1018.3
20260504001603 77 185 2.0 9.0 0.00 0.00 0.00 40 1018.3
20260504000101 78 116 2.0 11.0 0.00 0.00 0.00 39 1018.4
20260503234601 79 181 3.0 12.0 0.00 0.00 0.00 39 1018.4
20260503233104 79 198 4.0 9.0 0.00 0.00 0.00 38 1018.5
20260503231558 80 138 2.0 8.0 0.00 0.00 0.00 37 1018.6
20260503224600 80 107 2.0 7.0 0.00 0.00 0.00 33 1018.7
20260503223100 80 174 3.0 7.0 0.00 0.00 0.00 32 1018.8
20260503221606 80 146 0.0 7.0 0.00 0.00 0.00 32 1019.2
20260503220106 81 81 2.0 7.0 0.00 0.00 0.00 31 1019.1
20260503214600 80 209 3.0 8.0 0.00 0.00 0.00 31 1019.0
20260503213101 81 140 2.0 16.0 0.00 0.00 0.00 31 1019.4
20260503211559 81 109 2.0 9.0 0.00 0.00 0.00 32 1019.7
20260503210101 81 128 3.0 11.0 0.00 0.00 0.00 31 1019.8
20260503204609 82 127 4.0 11.0 0.00 0.00 0.00 31 1019.9